User: anonymous
Location: Zlin
(49.2330°N, 17.6670°E)
Time: 16:10:36
(UTC+02:00)
Language:

ISS - Orbit

View from above orbital plane
View from above orbital plane
View from above satellite
View from above satellite

Ground track
Ground track

The orbit data is extracted from the following two-line orbital elements,

1 25544U 98067A   14204.26332641  .00001111  00000-0  27354-4 0  7535
2 25544 051.6473 280.7647 0005315 287.4035 149.4137 15.50136457896925
Epoch (UTC): 23 July 2014 06:19:11
Eccentricity: 0.0005315
inclination: 51.6473°
perigee height: 413 km
apogee height: 420 km
right ascension of ascending node: 280.7647°
argument of perigee: 287.4035°
revolutions per day: 15.50136457
mean anomaly at epoch: 149.4137°
orbit number at epoch: 89692

The dashed part of the orbit path shows where the satellite is in the earth's shadow,  

DLR